De Queen, AR

9:48 AM CST on December 08, 2019 (GMT -0600)
Helms Sevier County

Weather History for KDEQ - August, 2019

Change the Weather History Date:

Wednesday, August 14, 2019

  Actual Average Record
Temperature  
Mean Temperature 85 °F 82 °F  
Max Temperature 95 °F 94 °F 106 °F (1956)
Min Temperature 75 °F 69 °F 52 °F (1967)
Degree Days  
Heating Degree Days 0 0  
Month to date heating degree days 0 0  
Since 1 June heating degree days 0 0  
Since 1 July heating degree days 0 0  
Cooling Degree Days 20 17  
Month to date cooling degree days 271 234  
Year to date cooling degree days 1408 1326  
Since 1 June cooling degree days 1135 1109  
Growing Degree Days 35 (Base 50)    
Moisture  
Dew Point 78 °F    
Average Humidity 83    
Maximum Humidity 100    
Minimum Humidity 56    
Precipitation  
Precipitation 0.00 in 0.07 in 3.55 in (1966)
Month to date precipitation 0.35 0.98  
Year to date precipitation 37.43 30.40  
Snow  
Snow 0.00 in - - ()
Month to date snowfall 0.0  
Since 1 June snowfall 0.0  
Since 1 July snowfall 0.0  
Snow Depth 0.00 in    
Sea Level Pressure  
Sea Level Pressure 29.94 in    
Wind  
Wind Speed 1 mph ()    
Max Wind Speed 10 mph    
Max Gust Speed 13 mph    
Visibility 8.9 miles    
Events      
T = Trace of Precipitation, MM = Missing Value Source: Averaged Metar Reports

Daily Weather History Graph

Daily Weather History Graph

Search for Another Location

Airport or City:

Astronomy

Aug. 14, 2019 Rise Set
Actual Time 6:38 AM CDT 8:05 PM CDT
Civil Twilight 6:11 AM CDT 8:32 PM CDT
Nautical Twilight 5:39 AM CDT 9:03 PM CDT
Astronomical Twilight 5:06 AM CDT 9:37 PM CDT
Moon 7:57 PM CDT (8/14) 5:41 AM CDT (8/14)
Length of Visible Light 14h 20m
Length of Day
13h 27m
Waxing Gibbous, 99% of the Moon is Illuminated
Aug 14
Waxing Gibbous
Aug 15
Full
Aug 23
Last Quarter
Aug 30
New
Sep 5
First Quarter

Hourly Weather History & Observations

Time (CDT) Temp. Heat Index Dew Point Humidity Pressure Visibility Wind Dir Wind Speed Gust Speed Precip Events Conditions
12:53 AM 79.0 °F - 78.1 °F 97% 29.93 in 8.0 mi Calm Calm - N/A   Partly Cloudy
1:53 AM 78.1 °F - 78.1 °F 100% 29.93 in 9.0 mi Calm Calm - N/A   Partly Cloudy
2:53 AM 78.1 °F - 78.1 °F 100% 29.91 in 9.0 mi Calm Calm - N/A   Clear
3:53 AM 79.0 °F - 78.1 °F 97% 29.91 in 10.0 mi Calm Calm - N/A   Clear
4:53 AM 77.0 °F - 77.0 °F 100% 29.91 in 9.0 mi Calm Calm - N/A   Clear
5:53 AM 77.0 °F - 77.0 °F 100% 29.92 in 6.0 mi Calm Calm - N/A   Clear
6:53 AM 77.0 °F - 77.0 °F 100% 29.94 in 5.0 mi Calm Calm - N/A   Clear
7:53 AM 79.0 °F - 79.0 °F 100% 29.96 in 10.0 mi West 5.8 mph - N/A   Scattered Clouds
8:53 AM 84.0 °F 96.0 °F 79.0 °F 85% 29.98 in 10.0 mi Calm Calm - N/A   Partly Cloudy
9:53 AM 88.0 °F 100.2 °F 77.0 °F 70% 29.99 in 10.0 mi Variable 5.8 mph - N/A   Partly Cloudy
10:53 AM 86.0 °F 96.0 °F 75.9 °F 72% 30.00 in 10.0 mi East 4.6 mph - N/A   Clear
11:53 AM 87.1 °F 98.8 °F 77.0 °F 72% 30.01 in 10.0 mi ESE 3.5 mph - N/A   Clear
12:53 PM 90.0 °F 102.5 °F 77.0 °F 65% 29.99 in 10.0 mi Variable 4.6 mph - N/A   Clear
1:53 PM 91.0 °F 104.2 °F 77.0 °F 63% 29.95 in 10.0 mi SE 4.6 mph - N/A   Partly Cloudy
2:53 PM 93.0 °F 108.9 °F 78.1 °F 62% 29.92 in 10.0 mi Variable 5.8 mph - N/A   Clear
3:53 PM 93.9 °F 106.9 °F 75.9 °F 56% 29.91 in 10.0 mi Calm Calm - N/A   Partly Cloudy
4:53 PM 93.0 °F 105.3 °F 75.9 °F 57% 29.89 in 10.0 mi Calm Calm - N/A   Clear
5:53 PM 93.9 °F 106.9 °F 75.9 °F 56% 29.88 in 10.0 mi SSE 4.6 mph - N/A   Clear
6:53 PM 93.0 °F 106.7 °F 77.0 °F 59% 29.88 in 10.0 mi SE 3.5 mph - N/A   Clear
7:53 PM 87.1 °F 103.2 °F 80.1 °F 80% 29.90 in 10.0 mi Calm Calm - N/A   Clear
8:53 PM 81.0 °F 89.9 °F 80.1 °F 97% 29.93 in 9.0 mi Calm Calm - N/A   Clear
9:53 PM 79.0 °F - 78.1 °F 97% 29.96 in 10.0 mi Calm Calm - N/A   Clear
10:53 PM 78.1 °F - 78.1 °F 100% 29.99 in 4.0 mi Calm Calm - N/A   Clear
11:53 PM 75.9 °F - 75.9 °F 100% 29.99 in 5.0 mi Calm Calm - N/A   Clear